Starlink 31181

operational
NORAD ID: 58746 Int'l Des: 2024-005 Owner: SPXS Country: US Constellation: starlink
LEOCIRCULAR

Über Starlink 31181

Beschreibung wird geladen...

Live-Position

3D-Globus wird geladen...

Nächste Überflüge

Höhenverlauf

Altitude vs Time

uPlot chart will show altitude changes over time

Zweizeiliger Elementsatz

1 58746U 24005U 25257.94127309 -.00000863 00000-0 -21848-4 0 9993
2 58746 43.0001 340.0530 0000981 263.4352 96.6388 15.27572060 95401
Epoch: 14. Sept. 2025 • Age: 14 hours

Aktueller Status

Höhe 483.9 km
Geschwindigkeit 7.63 km/s
Subsatellitenpunkt 28.15°N, 176.82°W
Startdatum 7. Jan. 2024
Alter 1.6 years
Typ internet

Technische Details

Klassifizierung Payload
Masse 730.00 kg
Trockenmasse 700.00 kg
Gesamtmasse 730.00 kg
Länge 0.30 m
Durchmesser 4.10 m
Spannweite 29.00 m
Form Box + pan
Hersteller SPXS
Bus-Typ Starlink V2M
Phasenstatus In Orbit
Besitzer/Staat SPXS/US

Große Konstellationen

Loading constellations...